Home > Weather > Loughton > Past weeks

Flag for United Kingdom Weather for the Past 2 Weeks in Loughton, England, United Kingdom

Now
39 °F

Chilly.


Feels Like: 39 °F
Forecast: 58 / 72 °F
Wind: 1 mph from East

Location: Gravesend-Broadness

Current Time: May 6, 2016 at 6:43:50 AM

Latest Report: May 6, 2016 at 6:00 AM


Visibility: N/A

Pressure: 29.92 "Hg

Humidity: 97%

Dew Point: 38 °F

Location of LoughtonLocation

Historic Weather in Loughton — Graph

°F

Loughton Temperature Yesterday

Maximum temperature yesterday: 68 °F (at 1:00 PM)
Minimum temperature yesterday: 39 °F (at 1:00 AM)
Average temperature yesterday: 55 °F

High & Low Weather Summary for the Past Weeks

 TemperatureHumidityPressure
High68 °F (May 5, 1:00 PM)99% (May 5, 3:00 AM)30.37 "Hg (May 5, 3:00 AM)
Low36 °F (May 4, 5:00 AM)29% (Apr 30, 3:00 PM)29.71 "Hg (Apr 25, 6:00 PM)
Average50 °F67%30.11 "Hg
* Reported Apr 21 5:00 AM — May 6 5:00 AM, Loughton, Weather by CustomWeather, © 2016

Note: Actual official high and low records may vary slightly from our data, if they occured in-between our weather recording intervals... More about our weather records

Advertising

Loughton Weather History for the Previous 24 Hours

Scroll right to see more
 ConditionsComfort  
Time TempWeatherWind HumidityBarometerVisibility
5:00 AM
Fri, May 6
41 °FQuite cool.2 mph99%29.93 "HgN/A
4:00 AM39 °FChilly.1 mph95%29.94 "HgN/A
3:00 AM42 °FQuite cool.2 mph92%29.96 "HgN/A
2:00 AM43 °FQuite cool.3 mph85%29.98 "HgN/A
1:00 AM49 °FCool.5 mph88%30.00 "HgN/A
12:00 AM50 °FCool.8 mph84%30.01 "HgN/A
11:00 PM
Thu, May 5
50 °FCool.6 mph82%30.02 "HgN/A
10:00 PM53 °FCool.10 mph72%30.03 "HgN/A
9:00 PM54 °FCool.12 mph63%30.04 "HgN/A
8:00 PM55 °FCool.12 mph59%30.04 "HgN/A
7:00 PM58 °FRefreshingly cool.14 mph51%30.04 "HgN/A
6:00 PM60 °FRefreshingly cool.15 mph47%30.05 "HgN/A
5:00 PM61 °FRefreshingly cool.15 mph50%30.06 "HgN/A
4:00 PM64 °FMild.13 mph48%30.08 "HgN/A
3:00 PM64 °FMild.17 mph40%30.10 "HgN/A
2:00 PM67 °FMild.12 mph34%30.11 "HgN/A
1:00 PM68 °FMild.8 mph33%30.13 "HgN/A
12:00 PM65 °FMild.9 mph34%30.15 "HgN/A
11:00 AM64 °FMild.10 mph39%30.17 "HgN/A
10:00 AM62 °FRefreshingly cool.8 mph46%30.18 "HgN/A
9:00 AM58 °FRefreshingly cool.10 mph51%30.18 "HgN/A
8:00 AM56 °FRefreshingly cool.6 mph60%30.18 "HgN/A
7:00 AM50 °FCool.3 mph77%30.18 "HgN/A
6:00 AM44 °FQuite cool.3 mph81%30.18 "HgN/A
Weather by CustomWeather, © 2016

See weather overviewHow to use our weather pages